Weather History for HEAR - August, 2013

Change the Weather History Date:

Tuesday, August 27, 2013

  Actual Average Record
Temperature  
Mean Temperature 77 °F -  
Max Temperature 87 °F 86 °F - ()
Min Temperature 67 °F 67 °F - ()
Cooling Degree Days 12    
Growing Degree Days 27 (Base 50)    
Moisture  
Dew Point 67 °F    
Average Humidity 67    
Maximum Humidity 88    
Minimum Humidity 42    
Precipitation  
Precipitation 0.00 in 0.00 in - ()
Sea Level Pressure  
Sea Level Pressure 29.78 in    
Wind  
Wind Speed 4 mph ()    
Max Wind Speed 10 mph    
Max Gust Speed -    
Visibility 6.1 miles    
Events      
T = Trace of Precipitation, MM = Missing Value Source: Averaged Metar Reports

Daily Weather History Graph

Daily Weather History Graph

Search for Another Location

Airport or City:

Trip Planner

Search our weather history database for the weather conditions in past years. The results will help you decide how hot, cold, wet, or windy it might be!

Date:

Astronomy

Aug. 27, 2013 Rise Set
Actual Time 5:17 AM EET 6:14 PM EET
Civil Twilight 4:52 AM EET 6:38 PM EET
Nautical Twilight 4:23 AM EET 7:08 PM EET
Astronomical Twilight 3:53 AM EET 7:38 PM EET
Moon 10:21 PM EET (8/27) 11:28 AM EET (8/27)
Length of Visible Light 13h 45m
Length of Day
12h 56m
Waning Gibbous, 60% of the Moon is Illuminated
Aug 27
Waning Gibbous
Aug 28
Last Quarter
Sep 5
New
Sep 12
First Quarter
Sep 19
Full

Hourly Weather History & Observations

Time (EET) Temp. Heat Index Dew Point Humidity Pressure Visibility Wind Dir Wind Speed Gust Speed Precip Events Conditions
12:00 AM 77.0 °F - 66.2 °F 69% 29.80 in - North 2.3 mph - N/A   Clear
1:00 AM 71.6 °F - 64.4 °F 78% 29.80 in - South 2.3 mph - N/A   Clear
2:00 AM 72 °F - 66 °F 76% 29.79 in 6 mi South 2.3 mph - -  
2:00 AM 71.6 °F - 68.0 °F 88% 29.77 in - South 2.3 mph - N/A   Clear
3:00 AM 71.6 °F - 68.0 °F 88% 29.77 in - South 4.6 mph - N/A   Clear
4:00 AM 68.0 °F - 64.4 °F 88% 29.80 in - SSW 3.5 mph - N/A   Clear
5:00 AM 68.0 °F - 64.4 °F 88% 29.80 in - South 3.5 mph - N/A   Clear
6:00 AM 68.0 °F - 64.4 °F 88% 29.80 in - SSW 2.3 mph - N/A   Clear
7:00 AM 77.0 °F - 68.0 °F 74% 29.80 in - Calm Calm - N/A   Clear
8:00 AM 82 °F - 68 °F 53% 29.82 in 6 mi NW 2.3 mph - -  
8:00 AM 82.4 °F 85.4 °F 68.0 °F 62% 29.80 in - NW 2.3 mph - N/A   Clear
9:00 AM 84.2 °F 86.6 °F 66.2 °F 55% 29.80 in 6.2 mi NNE 2.3 mph - N/A   Scattered Clouds
10:00 AM 86.0 °F 88.2 °F 66.2 °F 51% 29.80 in 6.2 mi North 4.6 mph - N/A   Scattered Clouds
11:00 AM 86.0 °F 87.3 °F 64.4 °F 48% 29.80 in 6.2 mi North 6.9 mph - N/A   Partly Cloudy
12:00 PM 86.0 °F 88.2 °F 66.2 °F 51% 29.77 in 6.2 mi NNW 6.9 mph - N/A   Scattered Clouds
1:00 PM 86.0 °F 88.2 °F 66.2 °F 51% 29.77 in 6.2 mi North 8.1 mph - N/A   Partly Cloudy
2:00 PM 86 °F - 66 °F 42% 29.76 in 6 mi NNW 9.2 mph - -  
2:00 PM 86.0 °F 88.2 °F 66.2 °F 51% 29.74 in - NNW 9.2 mph - N/A   Clear
3:00 PM 86.0 °F 88.2 °F 66.2 °F 51% 29.74 in - NNW 10.4 mph - N/A   Clear
4:00 PM 86.0 °F 88.2 °F 66.2 °F 51% 29.74 in - North 9.2 mph - N/A   Clear
5:00 PM 84.2 °F 85.0 °F 62.6 °F 48% 29.74 in - North 10.4 mph - N/A   Clear
6:00 PM 82.4 °F 86.3 °F 69.8 °F 66% 29.74 in - North 8.1 mph - N/A   Clear
7:00 PM 80.6 °F 83.9 °F 69.8 °F 70% 29.77 in - North 5.8 mph - N/A   Clear
8:00 PM 80 °F - 71 °F 66% 29.78 in 6 mi North 8.9 mph - -  
8:00 PM 80.6 °F 84.6 °F 71.6 °F 74% 29.77 in - North 4.6 mph - N/A   Clear
9:00 PM 80.6 °F 84.6 °F 71.6 °F 74% 29.77 in - North 4.6 mph - N/A   Clear
10:00 PM 77.0 °F - 71.6 °F 83% 29.77 in - Calm Calm - N/A   Clear
11:00 PM 75.2 °F - 69.8 °F 83% 29.77 in - South 2.3 mph - N/A   Clear